APRIZESAT 2 1 28366U 04025A 21101.16063201 .00000012 00000-0 17668-4 0 9995 2 28366 98.2286 345.7994 0107290 193.4418 166.3907 14.36734335879748 SAUDICOMSAT 1 1 28369U 04025D 21101.15079355 .00000050 00000-0 23376-4 0 9999 2 28369 98.3818 56.7481 0034709 60.5970 299.8683 14.52610576889140 SAUDICOMSAT 2 1 28370U 04025E 21100.57063994 .00000043 00000-0 24180-4 0 9994 2 28370 98.4740 54.0082 0056775 233.3022 126.2946 14.47536961886006 APRIZESAT 1 1 28372U 04025G 21101.12666886 .00000032 00000-0 20081-4 0 9991 2 28372 98.4346 55.3408 0046933 150.6654 209.7190 14.49667532887519 NANOSAT-1 1 28493U 04049B 21101.09173521 .00000090 00000-0 21606-4 0 9994 2 28493 98.1076 196.8989 0003552 221.2274 138.8665 14.73661943876196 SAUDICOMSAT 7 1 31119U 07012C 21100.79155996 .00000066 00000-0 22554-4 0 9994 2 31119 98.1347 47.2133 0060234 7.2623 352.9436 14.61853059745497 SAUDICOMSAT 6 1 31121U 07012E 21101.09356236 .00000057 00000-0 21803-4 0 9997 2 31121 98.1826 42.6512 0077843 98.0248 262.9793 14.58648335743980 SAUDICOMSAT 5 1 31124U 07012H 21100.81665645 .00000062 00000-0 21135-4 0 9990 2 31124 98.1014 49.3598 0050702 318.5571 41.1790 14.63559575746300 SAUDICOMSAT 3 1 31125U 07012J 21101.13012162 .00000082 00000-0 24109-4 0 9993 2 31125 98.0653 51.8182 0041833 268.2107 91.4304 14.65333764747264 SAUDICOMSAT 4 1 31127U 07012L 21100.76711870 .00000065 00000-0 22856-4 0 9993 2 31127 98.1599 45.3016 0069070 50.7971 309.9335 14.60365867744729 APRIZESAT 4 1 35684U 09041D 21100.85440622 .00000065 00000-0 16443-4 0 9998 2 35684 98.3058 94.8345 0045923 299.8429 59.8220 14.79354205631152 APRIZESAT 3 1 35686U 09041F 21100.66806184 .00000115 00000-0 18705-4 0 9997 2 35686 98.1409 172.0971 0073302 158.3692 202.0647 14.87489107634268 AISSAT 1 1 36797U 10035C 21100.67984589 .00000197 00000-0 28966-4 0 9993 2 36797 98.2092 264.4413 0012109 133.0413 227.1818 14.86466622582274 S-NET D 1 43186U 18014G 21100.51368287 -.00000200 00000-0 -12360-4 0 9990 2 43186 97.6821 9.3089 0009980 316.9361 43.1079 14.97016933174134 S-NET B 1 43187U 18014H 21100.78094243 -.00000212 00000-0 -13371-4 0 9994 2 43187 97.6818 9.5405 0009975 315.8771 44.1654 14.97016510174177 S-NET A 1 43188U 18014J 21100.71409781 -.00000197 00000-0 -12092-4 0 9996 2 43188 97.6822 9.5164 0009968 316.2512 43.7919 14.97015343174166 S-NET C 1 43189U 18014K 21100.98194273 -.00000243 00000-0 -16059-4 0 9992 2 43189 97.6816 9.7310 0009959 314.9128 45.1285 14.97015167172752 SALSAT 1 46495U 20068K 21100.90671013 .00001013 00000-0 78892-4 0 9998 2 46495 97.6871 38.8219 0016442 303.8532 56.1131 15.03399762 29182